Weather in Lyubyni

Russia / Novgorod Oblast     58°05′51″N   30°37′08″E
temp.,
°C
wind,
m/s
gust,
m/s
humid.,
%
clouds,
%
prec.,
mm/h
press.,
hPa
HPBL,
m
28 september, tue
tue2800:00+6ne24965 0.0 103192
03:00+6ne239710 0.0 103166
06:00+5ne249710 0.0 103168
09:00+7ene36909 0.0 1032247
12:00+11ene347046 0.0 1032865
15:00+11e3468100 0.0 1033901
18:00+9e2576100 0.0 1033256
21:00+9ese2572100 0.0 1034135
29 september, wed
wed2900:00+8se268234 0.0 1035192
03:00+5sse24885 0.0 103666
06:00+4sse23898 0.0 103662
09:00+6sse247641 0.0 1037148
12:00+11sse23578 0.0 1037846
15:00+12se23525 0.0 10351117
18:00+9se227125 0.0 103518
21:00+6ese228110 0.0 103517
30 september, thu
thu3000:00+5se228540 0.0 103529
03:00+4sse228748 0.0 103624
06:00+3sse228625 0.0 103539
09:00+5sse257560 0.0 1035157
12:00+11sse355635 0.0 1035666
15:00+12sse454915 0.0 1033988
18:00+9sse236910 0.0 103252
21:00+6sse367814 0.0 1032103
1 october, fri
fri100:00+5s38848 0.0 1033151
03:00+4sse39895 0.0 1032169
06:00+4s39905 0.0 1032197
09:00+6s4117833 0.0 1031284
12:00+11s4862100 0.0 1031529
15:00+10s4966100 0.0 1031541
18:00+9s2874100 0.0 1030259
21:00+9s2878100 0.0 1030210
2 october, sat
sat200:00+7s398884 0.0 1029221
03:00+6s388964 0.0 1029180
06:00+8s31078100 0.0 1027286
09:00+9s4107346 0.0 1027360
12:00+13s59545 0.0 1026684
15:00+14s595010 0.0 1025947
18:00+11s5125978 0.0 1024661
21:00+10s5146655 0.0 1024629